{"data":{"norad_id":39476,"intl_designator":"2013-073A","name":"INMARSAT 5-F1","alt_names":[],"object_type":"PAYLOAD","status":"ACTIVE","operator":null,"country":"IM","launch_date":"2013-12-08","launch_site_code":"TYMSC","launch_vehicle":null,"mission":null,"orbit_class":"UNKNOWN","rcs_meters":7.1723,"size_class":null,"mass_kg":null,"dimensions":null,"purposes":["comms"],"wikipedia_slug":null,"has_3d_model":false,"image_url":null,"decayed_at":null,"tle_current":{"epoch":"2026-05-24T22:54:32.541120Z","epoch_age_seconds":85731,"freshness":"FRESH","line1":"1 39476U 13073A   26144.95454330  .00000025  00000+0  00000+0 0  9998","line2":"2 39476   0.0156 344.8237 0000412 334.0868 329.9068  1.00272076 45341","mean_motion":1.00272076,"eccentricity":4.12e-5,"inclination_deg":0.0156,"raan_deg":344.8237,"arg_perigee_deg":334.0868,"mean_anomaly_deg":329.9068,"bstar":0,"rev_number":4534,"period_min":1436.0927363267,"perigee_km":35784.776199929,"apogee_km":35788.25056712,"semimajor_km":42164.650383524,"source":"CELESTRAK","updated_at":"2026-05-25T13:38:13.946937Z"}}}